Simultaneous Nadir Overpasses (SNOs) Predictions

Prediction of SNOs between METOP-A and TERRA Satellite Orbit:

Table of predicted SNOs for the next 14.0 days since TLE Epoch: 12/2/2017
Index Date (METOP-A) Time (METOP-A) Lat,Lon (METOP-A) SZA (METOP-A ) Date (TERRA) Time (TERRA) Lat,Lon (TERRA) SZA (TERRA ) Distance(km) Time Diff (sec)
1 12/02/2017 18:30:58 -81.38, 130.84 73.53 12/02/2017 18:31:35 -81.37, 130.94 73.50 1.66 37
2 12/02/2017 19:21:37 81.38, -61.22 106.55 12/02/2017 19:21:01 81.38, -61.34 106.52 2.00 36
3 12/05/2017 14:05:16 -81.38,-162.63 73.17 12/05/2017 14:05:49 -81.38,-162.59 73.16 0.56 33
4 12/05/2017 14:55:55 81.38, 5.27 106.90 12/05/2017 14:55:15 81.38, 5.11 106.86 2.72 40
5 12/08/2017 09:39:34 -81.38, -96.12 72.88 12/08/2017 09:40:03 -81.37, -96.19 72.88 1.36 29
6 12/08/2017 10:30:14 81.38, 71.34 107.14 12/08/2017 10:29:29 81.38, 71.49 107.13 2.55 45
7 12/11/2017 05:13:51 -81.38, -29.63 72.66 12/11/2017 05:14:15 -81.39, -29.47 72.62 2.89 24
8 12/11/2017 06:04:30 81.38, 138.19 107.41 12/11/2017 06:03:41 81.39, 138.21 107.39 0.83 49
9 12/14/2017 00:48:09 -81.38, 36.83 72.49 12/14/2017 00:48:29 -81.38, 36.81 72.48 0.35 20




NCC Satellite Simultaneous Nadir Overpasses (SNOs) Prediction Service
